Regional Weather Roundup
Issued by NWS New Orleans/Baton Rouge, LA

Home | Current Version | Previous Version | Graphics & Text | Print | Product List | Glossary On
Versions: 1 2 3 4 5 6 7 8 9 10 11 12 13 14 15 16 17 18 19 20 21 22 23 24 25 26 27 28 29 30 31 32 33 34 35 36 37 38 39 40 41 42 43 44 45 46 47 48 49 50
879
ASUS44 KLIX 201401
RWRLIX
NEW ORLEANS REGIONAL WEATHER ROUNDUP
NATIONAL WEATHER SERVICE NEW ORLEANS LA
900 AM CDT SAT SEP 20 2014

NOTE: "FAIR" INDICATES FEW OR NO CLOUDS BELOW 12,000 FEET WITH NO
      SIGNIFICANT WEATHER AND/OR OBSTRUCTIONS TO VISIBILITY.
      SKY/WX - SKY CONDITION AND SIGNIFICANT WEATHER.
      TMP - AIR TEMPERATURE.     DP    - DEWPOINT TEMPERATURE.
      RH  - RELATIVE HUMIDITY.   PRES  - PRESSURE.
      HI  - HEAT INDEX.          WCI   - WIND CHILL INDEX.

*  THESE STATIONS ARE NOT NWS OR FAA STATIONS AND ARE NOT UNDER
   NWS QUALITY CONTROL.

LAZ038-040-048-061>063-065>067-069-201500-
SOUTHEAST LOUISIANA

CITY           SKY/WX    TMP DP  RH WIND       PRES   REMARKS
N.O. AUDUBON   NOT AVBL
N.O. INTL ARPT MOSUNNY   81  71  71 E14       29.98R
N.O. LAKEFRONT SUNNY     80  71  74 E17       29.99R
N.O. DOWNTOWN*   N/A     79  68  69 NE8       29.98S
SLIDELL        SUNNY     77  68  73 NE9       29.99R
BATON ROUGE    SUNNY     76  69  79 NE8       30.00R
BOOTHVILLE     PTSUNNY   82  72  71 E18G25    29.96R
BELLE CHASSE   MOSUNNY   81  73  76 NE10      29.97R
BOGALUSA*        N/A     76  68  75 NE5       30.03S
GALLIANO*      NOT AVBL
NEW ROADS*       N/A     76  69  79 NE3       30.00S
GONZALES*        N/A     77  73  89 E6        29.98S
HAMMOND*       NOT AVBL
HOUMA*         SUNNY     79  63  57 NE9       29.96R
PORT FOURCHON* PTSUNNY   82  72  69 E17       29.97R

$$

MSZ070-080>082-201500-
SOUTHERN MISSISSIPPI

CITY           SKY/WX    TMP DP  RH WIND       PRES   REMARKS
MCCOMB         SUNNY     75  68  78 VRB5      30.04R
GULFPORT       SUNNY     77  68  73 NE10      30.00R
BILOXI         SUNNY     77  68  72 NE10      30.00R
PASCAGOULA     SUNNY     76  69  79 E9        30.00S
STENNIS ARPT*  SUNNY     77  82 100 NE9       30.00R

$$

COASTAL OBSERVATIONS
LAKE AND NEARSHORE STATIONS

STATION/POSITION TIME  TEMP    WIND        PRES    WAVE
                       AIR SEA DIR/SP/G            HT/PER
                 (UTC) (F)     (DEG/KT/KT) (MB)    (FT/S)
PASCAGOULA       1300   76      50/ 11/ 14 1015.1
WAVELAND YACHT   1300   75      60/ 14/ 17 1014.8
GRAND ISLE       1300   83 82   90/ 10/ 16 1014.5
SOUTHWEST PASS   1300   83 89   90/ 22/ 24 1013.8
NEW CANAL        1300   79 80   70/ 17/ 20 1015.3
SHELL BEACH      1300   80 77   60/ 18/ 21 1014.4

OFFSHORE STATIONS

STATION/POSITION TIME  TEMP    WIND        PRES    WAVE
                       AIR SEA DIR/SP/G            HT/PER
                 (UTC) (F)     (DEG/KT/KT) (MB)    (FT/S)
64 S DAUPHIN ISL 1301   81 84   80/ 21/ 23 1014.4    7/ 7

$$




USA.gov is the U.S. government's official web portal to all federal, state and local government web resources and services.